Burns, OR

11:37 PM PDT on June 25, 2017 (GMT -0700)
Burns Municipal

Weather History for KBNO - April, 2013

Change the Weather History Date:

Wednesday, April 10, 2013

  Actual Average Record
Temperature  
Mean Temperature 46 °F 42 °F  
Max Temperature 64 °F 56 °F 77 °F (1968)
Min Temperature 27 °F 28 °F 14 °F (1991)
Degree Days  
Heating Degree Days 19 23  
Month to date heating degree days 189 237  
Since 1 July heating degree days 6378 6622  
Cooling Degree Days 0 0  
Month to date cooling degree days 0 0  
Year to date cooling degree days 0 0  
Moisture  
Dew Point 31 °F    
Average Humidity 66    
Maximum Humidity 92    
Minimum Humidity 39    
Precipitation  
Precipitation 0.00 in 0.03 in 0.52 in (1982)
Month to date precipitation 0.34 0.31  
Year to date precipitation 1.26 3.61  
Sea Level Pressure  
Sea Level Pressure 30.16 in    
Wind  
Wind Speed 10 mph (WSW)    
Max Wind Speed 30 mph    
Max Gust Speed 39 mph    
Visibility 10 miles    
Events      
T = Trace of Precipitation, MM = Missing Value Source: NWS Daily Summary

Daily Weather History Graph

Daily Weather History Graph

Search for Another Location

Airport or City:

Trip Planner

Search our weather history database for the weather conditions in past years. The results will help you decide how hot, cold, wet, or windy it might be!

Date:

Astronomy

Apr. 10, 2013 Rise Set
Actual Time 6:21 AM PDT 7:33 PM PDT
Civil Twilight 5:51 AM PDT 8:03 PM PDT
Nautical Twilight 5:16 AM PDT 8:38 PM PDT
Astronomical Twilight 4:39 AM PDT 9:16 PM PDT
Moon 6:18 AM PDT (4/10) 8:16 PM PDT (4/10)
Length of Visible Light 14h 11m
Length of Day
13h 12m
New Moon, 0% of the Moon is Illuminated
Apr 10
New Moon
Apr 18
First Quarter
Apr 25
Full
May 2
Last Quarter
May 9
New

Hourly Weather History & Observations

Time (PDT) Temp. Windchill Dew Point Humidity Pressure Visibility Wind Dir Wind Speed Gust Speed Precip Events Conditions
12:53 AM 36.0 °F 30.3 °F 27.0 °F 70% 30.25 in 10.0 mi West 6.9 mph - N/A   Clear
1:53 AM 34.0 °F 27.2 °F 28.0 °F 79% 30.25 in 10.0 mi South 8.1 mph - N/A   Clear
2:53 AM 34.0 °F 29.8 °F 27.0 °F 75% 30.23 in 10.0 mi West 4.6 mph - N/A   Clear
3:53 AM 30.9 °F 26.2 °F 26.1 °F 82% 30.23 in 10.0 mi SSE 4.6 mph - N/A   Clear
4:53 AM 28.9 °F 23.9 °F 25.0 °F 85% 30.24 in 10.0 mi NNE 4.6 mph - N/A   Clear
5:53 AM 27.0 °F - 24.1 °F 89% 30.24 in 10.0 mi Calm Calm - N/A   Scattered Clouds
6:53 AM 30.9 °F 27.5 °F 27.0 °F 85% 30.26 in 10.0 mi North 3.5 mph - N/A   Mostly Cloudy
7:53 AM 35.1 °F 32.2 °F 28.0 °F 76% 30.26 in 10.0 mi NNE 3.5 mph - N/A   Mostly Cloudy
8:53 AM 37.9 °F - 28.9 °F 70% 30.26 in 10.0 mi Calm Calm - N/A   Mostly Cloudy
9:53 AM 42.1 °F - 30.0 °F 62% 30.25 in 10.0 mi Calm Calm - N/A   Partly Cloudy
10:53 AM 46.9 °F - 34.0 °F 61% 30.20 in 10.0 mi Calm Calm - N/A   Clear
11:53 AM 51.1 °F - 37.0 °F 59% 30.17 in 10.0 mi SSW 5.8 mph - N/A   Clear
12:53 PM 55.9 °F - 39.0 °F 53% 30.11 in 10.0 mi SSW 12.7 mph 17.3 mph N/A   Clear
1:53 PM 61.0 °F - 39.0 °F 44% 30.08 in 10.0 mi WSW 17.3 mph - N/A   Overcast
2:53 PM 62.1 °F - 37.9 °F 41% 30.03 in 10.0 mi SW 16.1 mph - N/A   Mostly Cloudy
3:53 PM 63.0 °F - 39.9 °F 43% 30.03 in 10.0 mi West 21.9 mph 31.1 mph N/A   Mostly Cloudy
4:53 PM 60.1 °F - 37.9 °F 44% 30.04 in 10.0 mi WSW 21.9 mph 32.2 mph N/A   Scattered Clouds
5:53 PM 57.0 °F - 36.0 °F 45% 30.06 in 10.0 mi West 19.6 mph 28.8 mph N/A   Scattered Clouds
6:53 PM 53.1 °F - 32.0 °F 45% 30.09 in 10.0 mi West 24.2 mph 28.8 mph N/A   Partly Cloudy
7:53 PM 48.0 °F - 25.0 °F 41% 30.09 in 10.0 mi WSW 12.7 mph - N/A   Clear
8:53 PM 45.0 °F 38.2 °F 30.9 °F 58% 30.12 in 10.0 mi West 15.0 mph 23.0 mph N/A   Clear
9:53 PM 41.0 °F 35.8 °F 30.9 °F 67% 30.14 in 10.0 mi West 8.1 mph - N/A   Clear
10:53 PM 39.0 °F 32.3 °F 30.9 °F 73% 30.14 in 10.0 mi WSW 10.4 mph - N/A   Clear
11:53 PM 37.0 °F 29.3 °F 30.0 °F 76% 30.14 in 10.0 mi WSW 11.5 mph - N/A   Clear